Weather History for Shawnee, OK

Change the Weather History Date:

Saturday, December 17, 2011

  Actual Average (KTIK) Record (KTIK)
Temperature  
Mean Temperature 44 °F -  
Max Temperature 59 °F 47 °F 69 °F (2002)
Min Temperature 30 °F 27 °F 14 °F (2000)
Degree Days  
Heating Degree Days 20    
Moisture  
Dew Point 30 °F    
Average Humidity 67    
Maximum Humidity 93    
Minimum Humidity 36    
Precipitation  
Precipitation 0.00 in - - ()
Sea Level Pressure  
Sea Level Pressure 30.44 in    
Wind  
Wind Speed 2 mph (West)    
Max Wind Speed 8 mph    
Max Gust Speed -    
Visibility 10 miles    
Events      
Averages and records for this station are not official NWS values.
T = Trace of Precipitation, MM = Missing Value Source: NWS Daily Summary

Daily Weather History Graph

Daily Weather History Graph

Search for Another Location

Airport:

Trip Planner

Search our weather history database for the weather conditions in past years. The results will help you decide how hot, cold, wet, or windy it might be!

Date:

Astronomy

Dec. 17, 2011 Rise Set
Actual Time 7:30 AM CST 5:17 PM CST
Civil Twilight 7:02 AM CST 5:45 PM CST
Nautical Twilight 6:30 AM CST 6:17 PM CST
Astronomical Twilight 5:59 AM CST 6:48 PM CST
Moon No Moon Rise 12:00 PM CST (12/17)
Length of Visible Light 10h 43m
Length of Day
9h 46m
Waning Gibbous, 53% of the Moon is Illuminated
Dec 17
Waning Gibbous
Dec 17
Last Quarter
Dec 24
New
Jan 1
First Quarter
Jan 9
Full

Hourly Weather History & Observations

Time (CST) Temp. Windchill Dew Point Humidity Pressure Visibility Wind Dir Wind Speed Gust Speed Precip Events Conditions
12:15 AM 30.2 °F - 26.6 °F 86% 30.46 in 10.0 mi Calm Calm - N/A   Clear
12:35 AM 30.2 °F - 28.4 °F 93% 30.46 in 10.0 mi Calm Calm - N/A   Clear
12:55 AM 30.2 °F 26.7 °F 28.4 °F 93% 30.45 in 10.0 mi South 3.5 mph - N/A   Clear
1:15 AM 32.0 °F - 28.4 °F 87% 30.44 in 10.0 mi Calm Calm - N/A   Clear
1:35 AM 32.0 °F - 28.4 °F 87% 30.44 in 10.0 mi Calm Calm - N/A   Clear
1:55 AM 32.0 °F - 28.4 °F 87% 30.45 in 10.0 mi Calm Calm - N/A   Clear
2:15 AM 32.0 °F - 28.4 °F 87% 30.45 in 10.0 mi Calm Calm - N/A   Clear
2:35 AM 30.2 °F - 26.6 °F 86% 30.45 in 10.0 mi Calm Calm - N/A   Clear
2:55 AM 30.2 °F - 28.4 °F 93% 30.45 in 10.0 mi Calm Calm - N/A   Clear
3:15 AM 30.2 °F - 26.6 °F 86% 30.45 in 10.0 mi Calm Calm - N/A   Clear
3:35 AM 32.0 °F 28.7 °F 26.6 °F 80% 30.45 in 10.0 mi SSW 3.5 mph - N/A   Clear
3:55 AM 32.0 °F 28.7 °F 26.6 °F 80% 30.45 in 10.0 mi SSW 3.5 mph - N/A   Clear
4:15 AM 30.2 °F - 26.6 °F 86% 30.45 in 10.0 mi Calm Calm - N/A   Clear
4:35 AM 30.2 °F 25.4 °F 26.6 °F 86% 30.45 in 10.0 mi SW 4.6 mph - N/A   Clear
4:55 AM 32.0 °F 26.4 °F 26.6 °F 80% 30.45 in 10.0 mi SW 5.8 mph - N/A   Clear
5:15 AM 32.0 °F 26.4 °F 26.6 °F 80% 30.44 in 10.0 mi SW 5.8 mph - N/A   Clear
5:35 AM 30.2 °F 25.4 °F 26.6 °F 86% 30.44 in 10.0 mi SW 4.6 mph - N/A   Clear
5:55 AM 32.0 °F 26.4 °F 26.6 °F 80% 30.44 in 10.0 mi SW 5.8 mph - N/A   Clear
6:15 AM 32.0 °F - 26.6 °F 80% 30.45 in 10.0 mi Calm Calm - N/A   Clear
6:35 AM 32.0 °F 27.5 °F 26.6 °F 80% 30.44 in 10.0 mi WSW 4.6 mph - N/A   Clear
6:55 AM 32.0 °F 27.5 °F 26.6 °F 80% 30.45 in 10.0 mi WSW 4.6 mph - N/A   Clear
7:15 AM 32.0 °F 27.5 °F 26.6 °F 80% 30.45 in 10.0 mi WSW 4.6 mph - N/A   Clear
7:35 AM 32.0 °F 27.5 °F 26.6 °F 80% 30.45 in 10.0 mi WSW 4.6 mph - N/A   Clear
7:55 AM 33.8 °F 28.6 °F 28.4 °F 81% 30.45 in 10.0 mi WSW 5.8 mph - N/A   Clear
8:15 AM 33.8 °F 27.7 °F 28.4 °F 81% 30.46 in 10.0 mi WSW 6.9 mph - N/A   Clear
8:35 AM 35.6 °F 30.7 °F 30.2 °F 81% 30.46 in 10.0 mi WSW 5.8 mph - N/A   Clear
8:55 AM 35.6 °F 30.7 °F 30.2 °F 81% 30.46 in 10.0 mi West 5.8 mph - N/A   Clear
9:15 AM 37.4 °F 33.8 °F 30.2 °F 75% 30.46 in 10.0 mi WNW 4.6 mph - N/A   Clear
9:35 AM 41.0 °F 38.0 °F 32.0 °F 70% 30.46 in 10.0 mi WNW 4.6 mph - N/A   Clear
9:55 AM 42.8 °F 39.3 °F 32.0 °F 66% 30.47 in 10.0 mi NW 5.8 mph - N/A   Clear
10:15 AM 44.6 °F 40.7 °F 32.0 °F 61% 30.47 in 10.0 mi NW 6.9 mph - N/A   Clear
10:35 AM 46.4 °F 42.9 °F 33.8 °F 62% 30.48 in 10.0 mi WNW 6.9 mph - N/A   Clear
11:15 AM 50.0 °F - 33.8 °F 54% 30.47 in 10.0 mi WNW 8.1 mph - N/A   Clear
11:35 AM 51.8 °F - 33.8 °F 50% 30.46 in 10.0 mi West 4.6 mph - N/A   Clear
11:55 AM 51.8 °F - 33.8 °F 50% 30.46 in 10.0 mi NW 4.6 mph - N/A   Clear
12:15 PM 53.6 °F - 33.8 °F 47% 30.45 in 10.0 mi NW 3.5 mph - N/A   Clear
12:35 PM 53.6 °F - 33.8 °F 47% 30.44 in 10.0 mi WNW 3.5 mph - N/A   Clear
12:55 PM 55.4 °F - 33.8 °F 44% 30.43 in 10.0 mi WNW 4.6 mph - N/A   Clear
1:15 PM 55.4 °F - 33.8 °F 44% 30.42 in 10.0 mi WNW 4.6 mph - N/A   Clear
1:35 PM 55.4 °F - 33.8 °F 44% 30.42 in 10.0 mi Calm Calm - N/A   Clear
2:35 PM 59.0 °F - 32.0 °F 36% 30.40 in 10.0 mi West 5.8 mph - N/A   Clear
2:55 PM 59.0 °F - 32.0 °F 36% 30.40 in 10.0 mi Calm Calm - N/A   Clear
3:15 PM 59.0 °F - 32.0 °F 36% 30.39 in 10.0 mi Calm Calm - N/A   Clear
3:35 PM 59.0 °F - 32.0 °F 36% 30.39 in 10.0 mi WNW 4.6 mph - N/A   Clear
3:55 PM 59.0 °F - 32.0 °F 36% 30.39 in 10.0 mi NW 3.5 mph - N/A   Clear
4:15 PM 59.0 °F - 32.0 °F 36% 30.39 in 10.0 mi Calm Calm - N/A   Clear
4:35 PM 57.2 °F - 32.0 °F 38% 30.39 in 10.0 mi Calm Calm - N/A   Clear
4:55 PM 55.4 °F - 32.0 °F 41% 30.40 in 10.0 mi Calm Calm - N/A   Clear
5:15 PM 53.6 °F - 33.8 °F 47% 30.40 in 10.0 mi NNW 3.5 mph - N/A   Clear
5:35 PM 51.8 °F - 32.0 °F 47% 30.40 in 10.0 mi Calm Calm - N/A   Clear
5:55 PM 51.8 °F - 32.0 °F 47% 30.40 in 10.0 mi Calm Calm - N/A   Clear
6:15 PM 50.0 °F - 32.0 °F 50% 30.40 in 10.0 mi Calm Calm - N/A   Clear
6:35 PM 50.0 °F - 33.8 °F 54% 30.41 in 10.0 mi Calm Calm - N/A   Clear
6:55 PM 50.0 °F - 32.0 °F 50% 30.41 in 10.0 mi Calm Calm - N/A   Clear
7:15 PM 42.8 °F 41.1 °F 32.0 °F 66% 30.41 in 10.0 mi SSW 3.5 mph - N/A   Clear
7:35 PM 46.4 °F - 32.0 °F 57% 30.41 in 10.0 mi Calm Calm - N/A   Clear
7:55 PM 48.2 °F - 32.0 °F 54% 30.40 in 10.0 mi Calm Calm - N/A   Clear
8:15 PM 42.8 °F - 32.0 °F 66% 30.40 in 10.0 mi Calm Calm - N/A   Clear
8:35 PM 44.6 °F - 32.0 °F 61% 30.40 in 10.0 mi Calm Calm - N/A   Clear
8:55 PM 41.0 °F - 32.0 °F 70% 30.40 in 10.0 mi Calm Calm - N/A   Clear
9:15 PM 41.0 °F - 32.0 °F 70% 30.39 in 10.0 mi Calm Calm - N/A   Clear
9:35 PM 41.0 °F - 32.0 °F 70% 30.39 in 10.0 mi Calm Calm - N/A   Clear
9:55 PM 42.8 °F - 32.0 °F 66% 30.39 in 10.0 mi Calm Calm - N/A   Clear
10:15 PM 41.0 °F - 32.0 °F 70% 30.39 in 10.0 mi Calm Calm - N/A   Clear
10:35 PM 39.2 °F - 32.0 °F 75% 30.39 in 10.0 mi Calm Calm - N/A   Clear
10:55 PM 41.0 °F - 32.0 °F 70% 30.39 in 10.0 mi Calm Calm - N/A   Clear
11:15 PM 35.6 °F 31.7 °F 30.2 °F 81% 30.39 in 10.0 mi SW 4.6 mph - N/A   Clear
11:35 PM 33.8 °F - 32.0 °F 93% 30.40 in 10.0 mi Calm Calm - N/A   Clear
11:55 PM 33.8 °F - 32.0 °F 93% 30.39 in 10.0 mi Calm Calm - N/A   Clear